Fredericksburg, TX

7:38 PM CDT on August 17, 2017 (GMT -0500)
Fredericksburg

Weather History for KT82 - January, 2013

Change the Weather History Date:

Saturday, January 5, 2013

  Actual Average (KSAT) Record (KSAT)
Temperature  
Mean Temperature 44 °F -  
Max Temperature 57 °F 58 °F 81 °F (1921)
Min Temperature 32 °F 37 °F 17 °F (1972)
Degree Days  
Heating Degree Days 20    
Moisture  
Dew Point 37 °F    
Average Humidity 87    
Maximum Humidity 100    
Minimum Humidity 46    
Precipitation  
Precipitation 0.01 in - - ()
Sea Level Pressure  
Sea Level Pressure 30.28 in    
Wind  
Wind Speed 1 mph (NW)    
Max Wind Speed 7 mph    
Max Gust Speed -    
Visibility 10 miles    
Events      
Averages and records for this station are not official NWS values.
T = Trace of Precipitation, MM = Missing Value Source: NWS Daily Summary

Daily Weather History Graph

Daily Weather History Graph

Search for Another Location

Airport or City:

Trip Planner

Search our weather history database for the weather conditions in past years. The results will help you decide how hot, cold, wet, or windy it might be!

Date:

Astronomy

Jan. 05, 2013 Rise Set
Actual Time 7:32 AM CST 5:49 PM CST
Civil Twilight 7:06 AM CST 6:16 PM CST
Nautical Twilight 6:36 AM CST 6:45 PM CST
Astronomical Twilight 6:07 AM CST 7:14 PM CST
Moon 12:55 AM CST (1/5) 12:28 PM CST (1/5)
Length of Visible Light 11h 09m
Length of Day
10h 16m
Last Quarter, 44% of the Moon is Illuminated
Jan 5
Last Quarter
Jan 11
New
Jan 18
First Quarter
Jan 26
Full
Feb 3
Last Quarter

Hourly Weather History & Observations

Time (CST) Temp. Windchill Dew Point Humidity Pressure Visibility Wind Dir Wind Speed Gust Speed Precip Events Conditions
12:15 AM 36.1 °F - 36.1 °F 100% 30.35 in 5.0 mi Calm Calm - 0.01 in   Drizzle
12:35 AM 36.1 °F - 36.1 °F 100% 30.34 in 10.0 mi Calm Calm - 0.01 in   Overcast
12:55 AM 36.3 °F - 36.3 °F 100% 30.34 in 10.0 mi Calm Calm - 0.01 in   Overcast
1:15 AM 36.5 °F - 36.5 °F 100% 30.34 in 10.0 mi Calm Calm - N/A   Overcast
1:35 AM 36.3 °F - 36.3 °F 100% 30.34 in 10.0 mi Calm Calm - N/A   Overcast
1:55 AM 36.5 °F - 36.5 °F 100% 30.33 in 10.0 mi Calm Calm - N/A   Overcast
2:15 AM 36.5 °F 33.9 °F 36.5 °F 100% 30.33 in 10.0 mi West 3.5 mph - N/A   Overcast
2:35 AM 36.5 °F - 36.5 °F 100% 30.33 in 10.0 mi Calm Calm - N/A   Overcast
2:55 AM 36.7 °F - 36.7 °F 100% 30.33 in 10.0 mi Calm Calm - N/A   Overcast
3:15 AM 36.7 °F - 36.7 °F 100% 30.33 in 10.0 mi Calm Calm - N/A   Overcast
3:35 AM 36.7 °F - 36.7 °F 100% 30.33 in 10.0 mi Calm Calm - N/A   Overcast
3:55 AM 36.9 °F - 36.9 °F 100% 30.32 in 10.0 mi Calm Calm - N/A   Overcast
4:15 AM 36.9 °F - 36.9 °F 100% 30.32 in 10.0 mi Calm Calm - N/A   Overcast
4:35 AM 37.0 °F - 37.0 °F 100% 30.31 in 10.0 mi Calm Calm - N/A   Overcast
4:55 AM 37.0 °F - 37.0 °F 100% 30.31 in 10.0 mi Calm Calm - N/A   Overcast
5:15 AM 37.0 °F - 37.0 °F 100% 30.30 in 10.0 mi Calm Calm - N/A   Overcast
5:35 AM 37.4 °F - 37.4 °F 100% 30.30 in 10.0 mi Calm Calm - N/A   Overcast
5:55 AM 37.2 °F - 37.2 °F 100% 30.31 in 10.0 mi Calm Calm - N/A   Overcast
6:35 AM 37.4 °F - 37.4 °F 100% 30.30 in 10.0 mi Calm Calm - N/A   Overcast
6:55 AM 37.4 °F - 37.4 °F 100% 30.31 in 10.0 mi Calm Calm - N/A   Overcast
7:15 AM 36.9 °F - 36.9 °F 100% 30.31 in 7.0 mi Calm Calm - N/A   Overcast
7:35 AM 36.9 °F - 36.9 °F 100% 30.32 in 7.0 mi Calm Calm - N/A   Mostly Cloudy
7:55 AM 36.5 °F - 36.5 °F 100% 30.32 in 4.0 mi Calm Calm - N/A   Scattered Clouds
8:35 AM 37.2 °F 33.6 °F 37.2 °F 100% 30.33 in 10.0 mi West 4.6 mph - N/A   Overcast
8:55 AM 37.6 °F 32.3 °F 37.6 °F 100% 30.33 in 10.0 mi WNW 6.9 mph - N/A   Overcast
9:35 AM 38.3 °F 33.2 °F 37.9 °F 99% 30.34 in 10.0 mi WNW 6.9 mph - N/A   Overcast
9:55 AM 38.7 °F 35.2 °F 38.3 °F 99% 30.34 in 10.0 mi NW 4.6 mph - N/A   Overcast
10:35 AM 40.3 °F - 39.2 °F 96% 30.33 in 10.0 mi Calm Calm - N/A   Overcast
10:55 AM 41.5 °F 39.6 °F 39.9 °F 94% 30.33 in 10.0 mi NW 3.5 mph - N/A   Overcast
11:15 AM 42.8 °F - 39.7 °F 89% 30.32 in 10.0 mi Calm Calm - N/A   Scattered Clouds
11:35 AM 44.4 °F 42.9 °F 40.1 °F 85% 30.31 in 10.0 mi West 3.5 mph - N/A   Scattered Clouds
11:55 AM 46.0 °F 44.8 °F 39.9 °F 79% 30.29 in 10.0 mi North 3.5 mph - N/A   Scattered Clouds
12:15 PM 47.8 °F - 41.0 °F 77% 30.28 in 10.0 mi Calm Calm - N/A   Clear
12:35 PM 48.9 °F - 40.5 °F 73% 30.26 in 10.0 mi Calm Calm - N/A   Clear
1:15 PM 51.4 °F - 39.2 °F 63% 30.23 in 10.0 mi Calm Calm - N/A   Clear
1:35 PM 52.5 °F - 37.9 °F 58% 30.22 in 10.0 mi WNW 3.5 mph - N/A   Clear
1:55 PM 54.1 °F - 38.3 °F 55% 30.21 in 10.0 mi Calm Calm - N/A   Clear
2:15 PM 54.7 °F - 37.8 °F 53% 30.21 in 10.0 mi Calm Calm - N/A   Clear
2:35 PM 54.3 °F - 37.4 °F 53% 30.20 in 10.0 mi NNW 4.6 mph - N/A   Clear
2:55 PM 55.8 °F - 37.9 °F 51% 30.20 in 10.0 mi West 4.6 mph - N/A   Clear
3:15 PM 55.8 °F - 37.6 °F 51% 30.19 in 10.0 mi Calm Calm - N/A   Clear
3:35 PM 56.5 °F - 37.8 °F 50% 30.20 in 10.0 mi Calm Calm - N/A   Clear
3:55 PM 56.7 °F - 37.4 °F 49% 30.20 in 10.0 mi North 3.5 mph - N/A   Clear
4:15 PM 57.2 °F - 37.2 °F 47% 30.20 in 10.0 mi West 4.6 mph - N/A   Clear
4:55 PM 56.7 °F - 36.0 °F 46% 30.21 in 10.0 mi Calm Calm - N/A   Clear
5:15 PM 55.6 °F - 36.5 °F 49% 30.21 in 10.0 mi North 4.6 mph - N/A   Clear
5:35 PM 52.0 °F - 36.7 °F 56% 30.21 in 10.0 mi North 5.8 mph - N/A   Clear
6:15 PM 45.7 °F 44.4 °F 36.0 °F 69% 30.22 in 3.0 mi NE 3.5 mph - N/A   Haze
7:15 PM 40.8 °F - 34.9 °F 79% 30.24 in 10.0 mi Calm Calm - N/A   Clear
7:35 PM 39.2 °F 37.0 °F 35.6 °F 87% 30.24 in 10.0 mi North 3.5 mph - N/A   Clear
7:55 PM 38.1 °F - 35.8 °F 91% 30.24 in 10.0 mi Calm Calm - N/A   Clear
8:15 PM 37.4 °F 33.8 °F 35.1 °F 91% 30.24 in 10.0 mi NW 4.6 mph - N/A   Clear
8:35 PM 36.5 °F - 35.4 °F 96% 30.26 in 10.0 mi Calm Calm - N/A   Clear
8:55 PM 35.8 °F 31.9 °F 34.5 °F 95% 30.26 in 10.0 mi NNW 4.6 mph - N/A   Clear
9:15 PM 34.7 °F 30.6 °F 34.5 °F 99% 30.26 in 10.0 mi NW 4.6 mph - N/A   Clear
9:35 PM 34.5 °F - 34.0 °F 98% 30.27 in 10.0 mi Calm Calm - N/A   Clear
9:55 PM 34.9 °F - 34.0 °F 97% 30.27 in 10.0 mi Calm Calm - N/A   Clear
10:15 PM 33.6 °F 30.6 °F 32.9 °F 97% 30.27 in 10.0 mi WNW 3.5 mph - N/A   Clear
10:35 PM 33.1 °F - 32.9 °F 99% 30.28 in 10.0 mi Calm Calm - N/A   Clear
10:55 PM 32.7 °F - 32.7 °F 100% 30.28 in 10.0 mi Calm Calm - N/A   Clear
11:15 PM 32.2 °F - 32.2 °F 100% 30.28 in 10.0 mi Calm Calm - N/A   Clear
11:35 PM 32.0 °F - 32.0 °F 100% 30.28 in 10.0 mi Calm Calm - N/A   Clear
11:55 PM 32.0 °F 27.5 °F 32.0 °F 100% 30.28 in 10.0 mi NW 4.6 mph - N/A   Clear